FLOCK 2P-4

Last updated on Wed Feb 14 2018 16:19:49 GMT+0000 (Greenwich Mean Time)

1 41611U 16040N 18044.87241916 .00002289 00000-0 97561-4 0 9992 2 41611 97.4319 110.7352 0009450 322.6203 37.4375 15.23944654 91454
UTC large
Height (km)
Speed (km/s)
/
Latitude / Longitude
Inclination (degrees)
Orbital Period (minutes)
Azimuth
Elevation
Range (km)
Doppler Factor

Next 0 passes for location: London (51.5072 / 0.1276)

Sorry there are no passes over London.